G0AMO Weather Reports


time (UTC)temp
C
wind
direction
speed
KPH
gust
KPH
rain 1hr
cm
rain 24hr
cm
rain mn
cm
humidity
%
barometer
mb
20260507223505 8 72 1.6 8.0 0.00 0.00 0.00 84 1016.3
20260507223004 8 64 3.2 8.0 0.00 0.00 0.00 83 1017.6
20260507222503 8 56 0.0 0.0 0.00 0.00 0.00 82 1017.6
20260507222004 8 83 0.0 3.2 0.00 0.00 0.00 82 1016.3
20260507221504 8 98 0.0 3.2 0.00 0.00 0.00 81 1017.3
20260507221003 8 57 0.0 8.0 0.00 0.00 0.00 81 1016.3
20260507220004 9 49 0.0 0.0 0.00 0.00 0.00 79 1016.6
20260507215504 9 51 0.0 0.0 0.00 0.00 0.00 78 1017.3
20260507214504 9 86 0.0 3.2 0.00 0.00 0.00 78 1017.6
20260507214004 9 121 1.6 3.2 0.00 0.00 0.00 78 1016.3
20260507213505 9 96 0.0 0.0 0.00 0.00 0.00 77 1016.6
20260507213004 9 126 0.0 0.0 0.00 0.00 0.00 77 1016.3
20260507212504 9 129 0.0 0.0 0.00 0.00 0.00 77 1016.6
20260507211504 9 121 0.0 0.0 0.00 0.00 0.00 76 1016.3
20260507211005 10 69 0.0 0.0 0.00 0.00 0.00 75 1016.3
20260507210504 10 58 3.2 8.0 0.00 0.00 0.00 74 1016.3
20260507210005 10 59 1.6 8.0 0.00 0.00 0.00 73 1016.7
20260507205503 10 84 0.0 8.0 0.00 0.00 0.00 73 1016.9
20260507205004 10 115 0.0 8.0 0.00 0.00 0.00 74 1017.1
20260507204004 10 155 0.0 0.0 0.00 0.00 0.00 74 1017.3
20260507203004 10 154 0.0 0.0 0.00 0.00 0.00 73 1017.3
20260507202505 10 163 0.0 0.0 0.00 0.00 0.00 73 1016.9
20260507201504 10 143 0.0 0.0 0.00 0.00 0.00 73 1015.9
20260507201004 10 132 0.0 0.0 0.00 0.00 0.00 73 1015.9
20260507200503 10 96 0.0 3.2 0.00 0.00 0.00 72 1016.1
20260507200005 11 115 0.0 8.0 0.00 0.00 0.00 72 1016.6
20260507194504 11 116 0.0 0.0 0.00 0.00 0.00 71 1016.6
20260507194004 11 110 0.0 0.0 0.00 0.00 0.00 71 1015.6
20260507193503 11 71 0.0 3.2 0.00 0.00 0.00 70 1015.6
20260507193003 11 113 0.0 3.2 0.00 0.00 0.00 70 1015.6
20260507192505 11 144 0.0 0.0 0.00 0.00 0.00 69 1016.3
20260507192004 12 81 0.0 0.0 0.00 0.00 0.00 68 1016.3
20260507191504 12 81 0.0 0.0 0.00 0.00 0.00 67 1015.6
20260507191004 12 119 0.0 3.2 0.00 0.00 0.00 67 1015.2
20260507190005 12 174 0.0 0.0 0.00 0.00 0.00 65 1015.2
20260507185504 12 199 0.0 8.0 0.00 0.00 0.00 64 1015.9
20260507185004 13 136 0.0 8.0 0.00 0.00 0.00 64 1015.9
20260507184504 13 247 0.0 3.2 0.00 0.00 0.00 63 1015.2
20260507184004 13 209 0.0 3.2 0.00 0.00 0.00 63 1015.6
20260507183505 13 183 0.0 3.2 0.00 0.00 0.00 63 1015.2
20260507183005 13 184 0.0 3.2 0.00 0.00 0.00 63 1015.9
20260507182503 13 128 0.0 0.0 0.00 0.00 0.00 63 1015.2
20260507182004 13 212 0.0 0.0 0.00 0.00 0.00 61 1015.2
20260507181505 13 266 0.0 0.0 0.00 0.00 0.00 60 1015.2
20260507181003 13 58 0.0 0.0 0.00 0.00 0.00 60 1014.9
20260507180005 14 196 0.0 0.0 0.00 0.00 0.00 59 1015.2
20260507175505 14 115 0.0 0.0 0.00 0.00 0.00 60 1015.2
20260507175004 14 143 0.0 3.2 0.00 0.00 0.00 60 1014.9
20260507173504 14 268 0.0 0.0 0.00 0.00 0.00 60 1015.2
20260507173005 15 243 0.0 0.0 0.00 0.00 0.00 59 1015.9
20260507172504 15 188 0.0 3.2 0.00 0.00 0.00 59 1015.9
20260507171504 15 93 0.0 4.8 0.00 0.00 0.00 57 1015.2
20260507170504 16 116 8.0 19.3 0.00 0.00 0.00 57 1015.6
20260507170005 16 101 0.0 3.2 0.00 0.00 0.00 56 1015.6
20260507165503 16 101 0.0 0.0 0.00 0.00 0.00 57 1015.2
20260507165003 17 279 0.0 0.0 0.00 0.00 0.00 53 1015.2
20260507164504 16 252 0.0 0.0 0.00 0.00 0.00 54 1015.2
20260507164005 16 252 0.0 0.0 0.00 0.00 0.00 57 1015.6
20260507163504 16 252 0.0 3.2 0.00 0.00 0.00 56 1015.6
20260507163004 16 252 0.0 3.2 0.00 0.00 0.00 58 1015.9
20260507162504 16 257 0.0 3.2 0.00 0.00 0.00 57 1015.2
20260507162004 16 257 1.6 3.2 0.00 0.00 0.00 58 1015.9
20260507161504 16 273 0.0 0.0 0.00 0.00 0.00 59 1015.2
20260507161005 16 222 0.0 0.0 0.00 0.00 0.00 60 1015.9
20260507160503 15 83 0.0 3.2 0.00 0.00 0.00 61 1015.9
20260507160005 15 83 0.0 3.2 0.00 0.00 0.00 62 1016.3
20260507155504 15 114 0.0 3.2 0.00 0.00 0.00 60 1016.3
20260507155004 15 111 0.0 0.0 0.00 0.00 0.00 61 1016.3
20260507154004 15 202 0.0 3.2 0.00 0.00 0.00 60 1015.6
20260507153504 15 185 0.0 11.3 0.00 0.00 0.00 59 1016.3
20260507153005 14 272 1.6 11.3 0.00 0.00 0.00 60 1016.3
20260507152504 14 215 0.0 8.0 0.00 0.00 0.00 60 1016.3
20260507152003 14 308 0.0 11.3 0.00 0.00 0.00 60 1015.6
20260507151505 15 242 4.8 11.3 0.00 0.00 0.00 58 1015.6
20260507151005 15 250 0.0 8.0 0.00 0.00 0.00 59 1015.6
20260507150504 15 293 0.0 8.0 0.00 0.00 0.00 59 1016.3
20260507150005 15 87 0.0 3.2 0.00 0.00 0.00 57 1015.6
20260507145505 15 329 0.0 0.0 0.00 0.00 0.00 58 1015.6
20260507145005 14 329 0.0 25.7 0.00 0.00 0.00 61 1015.6
20260507144505 14 312 3.2 25.7 0.00 0.00 0.00 58 1016.3
20260507144005 14 299 1.6 8.0 0.00 0.00 0.00 61 1016.3
20260507143005 14 313 0.0 8.0 0.00 0.00 0.00 62 1016.3
20260507142504 14 133 0.0 8.0 0.00 0.00 0.00 62 1016.3
20260507142003 14 215 3.2 4.8 0.00 0.00 0.00 62 1015.9
20260507141505 14 191 0.0 3.2 0.00 0.00 0.00 61 1015.9
20260507141004 14 86 0.0 3.2 0.00 0.00 0.00 59 1015.9
20260507140504 14 247 0.0 4.8 0.00 0.00 0.00 60 1015.6
20260507140004 15 267 1.6 4.8 0.00 0.00 0.00 58 1015.6
20260507135504 15 237 1.6 3.2 0.00 0.00 0.00 58 1015.6
20260507134504 15 176 0.0 3.2 0.00 0.00 0.00 57 1016.3
20260507134004 15 128 0.0 0.0 0.00 0.00 0.00 56 1015.6
20260507133504 16 237 0.0 3.2 0.00 0.00 0.00 56 1015.6
20260507132504 16 287 0.0 0.0 0.00 0.00 0.00 49 1016.3
20260507132004 16 87 0.0 0.0 0.00 0.00 0.00 53 1016.3
20260507131504 16 196 0.0 19.3 0.00 0.00 0.00 51 1015.9
20260507131004 15 128 4.8 19.3 0.00 0.00 0.00 52 1016.3
20260507130004 15 100 1.6 11.3 0.00 0.00 0.00 52 1016.3
20260507125504 16 113 0.0 11.3 0.00 0.00 0.00 51 1016.3
20260507125005 16 116 0.0 3.2 0.00 0.00 0.00 52 1016.3
20260507124504 15 102 0.0 3.2 0.00 0.00 0.00 53 1016.0
20260507123504 15 244 1.6 8.0 0.00 0.00 0.00 50 1015.9
20260507123004 15 263 3.2 11.3 0.00 0.00 0.00 50 1016.1
20260507122503 15 136 3.2 11.3 0.00 0.00 0.00 50 1016.0
20260507122004 16 265 3.2 8.0 0.00 0.00 0.00 48 1015.9
20260507121504 16 300 1.6 4.8 0.00 0.00 0.00 49 1015.9
20260507121004 15 255 0.0 3.2 0.00 0.00 0.00 50 1015.9
20260507120504 15 173 1.6 11.3 0.00 0.00 0.00 50 1016.2
20260507120006 15 96 1.6 11.3 0.00 0.00 0.00 51 1016.4
20260507115503 15 101 0.0 0.0 0.00 0.00 0.00 51 1015.9
20260507115004 15 180 3.2 4.8 0.00 0.00 0.00 49 1016.0
20260507114505 15 255 3.2 8.0 0.00 0.00 0.00 48 1016.3
20260507114004 16 61 1.6 11.3 0.00 0.00 0.00 50 1016.5
20260507113004 15 165 0.0 3.2 0.00 0.00 0.00 52 1016.6
20260507111506 15 214 1.6 4.8 0.00 0.00 0.00 57 1016.6
20260507110504 15 106 1.6 8.0 0.00 0.00 0.00 55 1016.3
20260507110004 15 117 1.6 8.0 0.00 0.00 0.00 54 1016.6
20260507105504 15 262 0.0 0.0 0.00 0.00 0.00 56 1016.3
20260507105004 15 73 0.0 0.0 0.00 0.00 0.00 56 1016.3
20260507104504 15 256 1.6 4.8 0.00 0.00 0.00 56 1016.3
20260507104004 15 313 3.2 4.8 0.00 0.00 0.00 54 1016.6
20260507103504 15 145 0.0 3.2 0.00 0.00 0.00 60 1016.3
20260507102505 14 308 1.6 11.3 0.00 0.00 0.00 56 1016.6
20260507101504 16 301 3.2 8.0 0.00 0.00 0.00 58 1016.6
20260507100503 14 89 1.6 14.5 0.00 0.00 0.00 61 1016.9
20260507095504 16 237 0.0 4.8 0.00 0.00 0.00 59 1016.9
20260507095004 16 267 3.2 4.8 0.00 0.00 0.00 57 1016.9
20260507094504 15 65 0.0 12.9 0.00 0.00 0.00 61 1016.6
20260507094005 15 58 8.0 12.9 0.00 0.00 0.00 62 1016.9
20260507093504 13 61 1.6 3.2 0.00 0.00 0.00 63 1017.3
20260507093004 15 89 1.6 3.2 0.00 0.00 0.00 59 1016.9
20260507092505 15 88 1.6 3.2 0.00 0.00 0.00 63 1017.3
20260507092004 15 50 0.0 3.2 0.00 0.00 0.00 64 1016.9
20260507091503 15 98 0.0 0.0 0.00 0.00 0.00 63 1016.9
20260507090503 15 224 0.0 0.0 0.00 0.00 0.00 64 1017.3
20260507090006 15 224 0.0 0.0 0.00 0.00 0.00 66 1017.3
20260507085504 15 193 0.0 0.0 0.00 0.00 0.00 66 1017.3
20260507085004 14 70 0.0 0.0 0.00 0.00 0.00 67 1017.3
20260507084505 14 84 0.0 0.0 0.00 0.00 0.00 68 1017.3
20260507084004 13 83 0.0 3.2 0.00 0.00 0.00 70 1016.6
20260507083505 13 208 0.0 3.2 0.00 0.00 0.00 74 1016.9
20260507083004 12 110 3.2 4.8 0.00 0.00 0.00 76 1016.6
20260507082504 11 58 3.2 11.3 0.00 0.00 0.00 77 1016.6
20260507082004 11 83 8.0 11.3 0.00 0.00 0.00 77 1017.3
20260507081503 11 54 8.0 11.3 0.00 0.00 0.00 77 1016.9
20260507081005 11 122 1.6 4.8 0.00 0.00 0.00 78 1016.3
20260507080004 11 83 3.2 11.3 0.00 0.00 0.00 79 1017.3
20260507075504 11 92 8.0 14.5 0.00 0.00 0.00 79 1016.9
20260507074504 11 102 3.2 14.5 0.00 0.00 0.00 80 1017.3
20260507073505 10 98 4.8 11.3 0.00 0.00 0.00 82 1016.9
20260507073004 10 87 8.0 19.3 0.00 0.00 0.00 82 1016.6
20260507072505 10 61 12.9 19.3 0.00 0.00 0.00 82 1017.3
20260507072004 9 82 0.0 12.9 0.00 0.00 0.00 84 1016.6
20260507071504 10 109 8.0 12.9 0.00 0.00 0.00 81 1016.6
20260507071004 10 102 3.2 14.5 0.00 0.00 0.00 82 1016.9
20260507070504 9 90 4.8 14.5 0.00 0.00 0.00 84 1016.9
20260507070008 9 97 8.0 11.3 0.00 0.00 0.00 83 1016.9
20260507065504 9 76 8.0 8.0 0.00 0.00 0.00 83 1016.6
20260507065004 9 133 1.6 8.0 0.00 0.00 0.00 84 1016.3
20260507064504 9 99 4.8 11.3 0.00 0.00 0.00 83 1016.3
20260507064004 9 106 8.0 14.5 0.00 0.00 0.00 84 1016.3
20260507063505 8 78 8.0 14.5 0.00 0.00 0.00 86 1017.3
20260507063005 8 96 4.8 11.3 0.00 0.00 0.00 86 1015.9
20260507062004 8 68 3.2 11.3 0.00 0.00 0.00 86 1017.3
20260507061504 8 95 0.0 8.0 0.00 0.00 0.00 86 1016.9
20260507061004 8 103 0.0 0.0 0.00 0.00 0.00 86 1016.3
20260507060505 7 116 0.0 0.0 0.00 0.00 0.00 87 1015.6
20260507060004 7 79 0.0 0.0 0.00 0.00 0.00 88 1015.6
20260507055504 6 108 0.0 0.0 0.00 0.00 0.00 90 1017.3
20260507055004 6 48 0.0 0.0 0.00 0.00 0.00 95 1016.9
20260507054504 5 48 0.0 0.0 0.00 0.00 0.00 94 1017.3
20260507054004 4 48 0.0 0.0 0.00 0.00 0.00 95 1015.9
20260507053503 3 48 0.0 0.0 0.00 0.00 0.00 95 1015.6
20260507053005 3 48 0.0 0.0 0.00 0.00 0.00 95 1015.6
20260507052505 3 48 0.0 0.0 0.00 0.00 0.00 95 1015.6
20260507052004 3 48 0.0 0.0 0.00 0.00 0.00 95 1017.3
20260507051504 3 48 0.0 0.0 0.00 0.00 0.00 95 1017.3
20260507051004 3 48 0.0 0.0 0.00 0.00 0.00 95 1016.9
20260507050504 3 48 0.0 0.0 0.00 0.00 0.00 95 1016.9
20260507050004 3 48 0.0 0.0 0.00 0.00 0.00 94 1015.6
20260507045503 3 48 0.0 0.0 0.00 0.00 0.00 94 1015.6
20260507044504 3 48 0.0 0.0 0.00 0.00 0.00 94 1015.6
20260507043504 3 48 0.0 0.0 0.00 0.00 0.00 94 1015.9
20260507043005 3 48 0.0 0.0 0.00 0.00 0.00 94 1015.6
20260507042504 3 48 0.0 0.0 0.00 0.00 0.00 94 1015.6
20260507042004 3 48 0.0 0.0 0.00 0.00 0.00 94 1015.6
20260507041505 3 48 0.0 0.0 0.00 0.00 0.00 94 1015.6
20260507041005 3 48 0.0 0.0 0.00 0.00 0.00 94 1015.6
20260507040504 3 52 0.0 0.0 0.00 0.00 0.00 94 1016.4
20260507035004 3 57 0.0 0.0 0.00 0.00 0.00 94 1015.4
20260507034504 3 57 0.0 0.0 0.00 0.00 0.00 94 1016.0
20260507034004 3 57 0.0 0.0 0.00 0.00 0.00 94 1016.5
20260507033504 3 57 0.0 0.0 0.00 0.00 0.00 94 1015.3
20260507033005 3 57 0.0 0.0 0.00 0.00 0.00 94 1015.6
20260507032504 3 57 0.0 0.0 0.00 0.00 0.00 94 1015.8
20260507032004 3 57 0.0 0.0 0.00 0.00 0.00 94 1016.8
20260507031504 3 57 0.0 0.0 0.00 0.00 0.00 94 1015.3
20260507031004 3 57 0.0 0.0 0.00 0.00 0.00 94 1015.6
20260507030505 3 57 0.0 0.0 0.00 0.00 0.00 94 1015.6
20260507025504 3 57 0.0 0.0 0.00 0.00 0.00 94 1016.9
20260507025003 3 57 0.0 0.0 0.00 0.00 0.00 94 1016.6
20260507024504 3 57 0.0 0.0 0.00 0.00 0.00 94 1015.2
20260507024004 3 57 0.0 0.0 0.00 0.00 0.00 94 1016.9
20260507023503 3 57 0.0 0.0 0.00 0.00 0.00 94 1015.2
20260507023004 3 57 0.0 0.0 0.00 0.00 0.00 94 1015.2
20260507021504 3 57 0.0 0.0 0.00 0.00 0.00 93 1016.6
20260507021004 3 57 0.0 0.0 0.00 0.00 0.00 93 1015.6
20260507020504 3 57 0.0 0.0 0.00 0.00 0.00 93 1015.2
20260507015504 3 57 0.0 0.0 0.00 0.00 0.00 93 1015.2
20260507015004 3 57 0.0 0.0 0.00 0.00 0.00 93 1016.6
20260507014503 3 57 0.0 0.0 0.00 0.00 0.00 93 1016.6
20260507013503 4 81 0.0 0.0 0.00 0.00 0.00 93 1016.6
20260507013005 4 81 0.0 0.0 0.00 0.00 0.00 93 1015.2
20260507011004 4 81 0.0 0.0 0.00 0.00 0.00 92 1015.2
20260507010503 4 81 0.0 0.0 0.00 0.00 0.00 91 1016.6
20260507005504 5 81 0.0 0.0 0.00 0.00 0.00 91 1015.2
20260507004505 5 81 0.0 0.0 0.00 0.00 0.00 91 1016.6
20260507004004 5 72 0.0 0.0 0.00 0.00 0.00 90 1016.6
20260507003503 5 65 0.0 0.0 0.00 0.00 0.00 90 1016.6
20260507003004 5 58 0.0 3.2 0.00 0.00 0.00 90 1015.6
20260507002503 5 37 0.0 3.2 0.00 0.00 0.00 89 1016.6
20260507002003 5 4 0.0 0.0 0.00 0.00 0.00 89 1015.6
20260507001504 5 4 0.0 0.0 0.00 0.00 0.00 89 1016.6
20260507001005 5 4 0.0 0.0 0.00 0.00 0.00 88 1015.6
20260507000005 5 4 0.0 0.0 0.00 0.00 0.00 88 1015.6
20260506235505 5 10 0.0 0.0 0.00 0.00 0.00 88 1016.6
20260506235003 5 14 0.0 0.0 0.00 0.00 0.00 87 1015.6
20260506234504 5 14 0.0 0.0 0.00 0.00 0.00 87 1015.2
20260506234004 5 14 0.0 0.0 0.00 0.00 0.00 86 1015.6
20260506232505 6 14 0.0 0.0 0.00 0.00 0.00 85 1016.6
20260506232005 6 14 0.0 0.0 0.00 0.00 0.00 85 1016.6
20260506231504 6 14 0.0 0.0 0.00 0.00 0.00 85 1016.6
20260506231004 6 18 0.0 0.0 0.00 0.00 0.00 84 1016.6
20260506230503 6 18 0.0 0.0 0.00 0.00 0.00 84 1015.2
20260506230004 6 18 0.0 0.0 0.00 0.00 0.00 84 1015.2
20260506225505 6 26 0.0 0.0 0.00 0.00 0.00 85 1015.2
20260506225003 5 29 0.0 0.0 0.00 0.00 0.00 84 1015.2
20260506224504 6 30 0.0 0.0 0.00 0.00 0.00 84 1016.6
20260506224005 6 30 0.0 0.0 0.00 0.00 0.00 84 1015.6